www.pogodaiklimat.ru

Погода и климат >> Архив погоды >> Австрия >> Лейзер Берге


ПОГОДА в Лейзер Берге

  • Прогноз погоды в Лейзер Берге
  • Монитор погоды в Лейзер Берге

АРХИВ ПОГОДЫ в Лейзер Берге

Время (UTC), дата Ветер
(напр.,м/с)
 
Видим.   Явления Облачность Т
(С)
Тd
(С)
f
(%)
Тe
(С)
Тes
(С)
Комфортность P
(гПа)
Po
(гПа)
Тmin
(С)
Tmax
(С)
R
(мм)
R24
(мм)
S
(см)
16 18.08 Ю 7 н/о н/о +29.2 +14.8 42 +32 +32 душно 1010.3 959.9
17 18.08 Ю 8 н/о н/о +28.2 +15.4 46 +31 +31 душно 1010.5 959.9
18 18.08 Ю 6 н/о н/о +26.9 +15.3 49 +30 +30 душно 1010.5 959.7 +18.8 +29.4
19 18.08 Ю 6 н/о н/о +26.3 +14.9 49 +29 +29 жарко 1010.6 959.7
20 18.08 Ю 7 н/о н/о +25.4 +15.4 54 +28 +28 жарко 1011.0 960.0
21 18.08 Ю 8
{14}
н/о н/о +24.4 +15.8 59 +28 +28 душно 1011.1 959.9
22 18.08 ЮВ 6
{14}
н/о н/о +22.5 +16.7 70 +27 +27 душно 1011.5 960.0
23 18.08 ЮВ 6 н/о н/о +21.2 +17.2 78 +25 +25 комфорт 1011.4 959.7
00 19.08 ЮВ 7
{14}
н/о н/о +20.6 +17.1 80 +24 +24 комфорт 1011.3 959.5
01 19.08 ЮВ 8 н/о н/о +19.7 +17.0 84 +21 +21 комфорт 1011.2 959.2
02 19.08 ЮВ 9 н/о н/о +19.1 +16.6 85 +20 +20 1011.2 959.1
03 19.08 ЮВ 8 н/о н/о +18.7 +16.3 86 +19 +19 1011.7 959.5
04 19.08 С 2 н/о н/о +18.3 +16.3 88 +19 +19 1013.1 960.8
05 19.08 З 4 н/о н/о +18.8 +16.6 87 +20 +20 1013.9 961.6
06 19.08 СЗ 10
{14}
н/о н/о +18.5 +16.5 88 +18 +18 1014.6 962.2 +17.9 +27.3
07 19.08 СЗ 10
{16}
н/о н/о +21.0 +15.7 72 +24 +24 комфорт 1015.0 963.0
08 19.08 С 12
{16}
н/о н/о +23.4 +15.9 63 +28 +28 душно 1014.9 963.3
09 19.08 СЗ 8
{16}
н/о н/о +24.6 +16.2 60 +28 +28 душно 1015.2 963.8
10 19.08 СЗ 6 н/о н/о +25.9 +15.9 54 +29 +29 душно 1015.5 964.3 0.0
11 19.08 СЗ 4 н/о н/о +27.0 +15.0 48 +30 +30 душно 1015.5 964.5
12 19.08 С 3
{16}
н/о н/о +27.5 +14.5 45 +30 +30 жарко 1015.5 964.6 0.0
13 19.08 СЗ 3 н/о н/о +27.7 +14.7 45 +30 +30 жарко 1015.7 964.8
14 19.08 СЗ 5 н/о н/о +29.2 +15.8 44 +32 +32 душно 1015.3 964.7
15 19.08 СЗ 4 н/о н/о +28.1 +12.8 39 +30 +30 жарко 1015.5 964.6
16 19.08 С 5 н/о н/о +26.7 +12.7 42 +28 +28 жарко 1015.6 964.5
17 19.08 С 4 н/о н/о +26.0 +14.6 49 +28 +28 жарко 1016.1 964.9
18 19.08 С 6
{16}
н/о н/о +24.0 +14.8 56 +27 +27 жарко 1016.9 965.3 +18.3 +29.2 0.0
19 19.08 С 8 н/о н/о +23.3 +15.0 60 +27 +27 душно 1017.5 965.8
20 19.08 З 5 н/о осадки н/о +21.4 +16.1 72 +25 +25 комфорт 1018.8 966.7 0.0
21 19.08 С 6 н/о в посл. час осадки н/о +20.9 +16.0 74 +24 +24 комфорт 1018.8 966.6 0.2
22 19.08 С 5 н/о н/о +20.6 +15.4 72 +23 +23 комфорт 1018.9 966.6
23 19.08 С 2 н/о н/о +20.7 +15.5 72 +24 +24 комфорт 1018.9 966.7 0.0
00 20.08 СЗ 5 н/о {осадки} н/о +20.2 +15.8 76 +23 +23 комфорт 1018.7 966.4 0.2
01 20.08 СЗ 6 н/о осадки н/о +18.8 +16.5 86 +19 +19 1019.2 966.6 0.1
02 20.08 С 7 н/о в посл. час осадки н/о +17.5 +16.8 96 +17 +17 1019.3 966.5 2
03 20.08 С 4 н/о {осадки} н/о +17.4 +16.9 97 +17 +17 1019.5 966.7 2
04 20.08 С 3 н/о н/о +17.7 +16.9 95 +18 +18 1019.7 966.9 0.0
05 20.08 С 3 н/о н/о +17.7 +17.0 96 +18 +18 1020.2 967.4
06 20.08 СЗ 5 н/о {осадки} н/о +17.9 +17.1 95 +17 +17 1020.5 967.7 +17.4 +24.2 2
07 20.08 СВ 2 н/о н/о +19.0 +17.1 89 +21 +21 комфорт 1020.1 967.5
08 20.08 С 3 н/о н/о +19.2 +18.1 93 +21 +21 комфорт 1020.1 967.6
09 20.08 СЗ 1 н/о н/о +21.0 +17.7 81 +26 +26 душно 1019.8 967.6
10 20.08 С 2 н/о н/о +22.3 +18.7 80 +28 +28 душно 1019.6 967.7
11 20.08 СВ 1 н/о н/о +23.7 +18.8 74 +28 +28 душно 1019.2 967.5
12 20.08 штиль 0 н/о н/о +24.8 +18.4 68 +29 +29 душно 1018.6 967.1
13 20.08 ЮВ 4 н/о н/о +25.5 +18.3 64 +30 +30 душно 1018.0 966.7
14 20.08 ЮВ 4 н/о н/о +25.9 +18.2 63 +31 +31 очень
душно
1017.4 966.2
15 20.08 ЮВ 4 н/о н/о +25.6 +18.1 63 +30 +30 душно 1017.3 966.0
16 20.08 ЮВ 4 н/о н/о +25.6 +17.8 62 +30 +30 душно 1016.7 965.5
17 20.08 ЮВ 4 н/о н/о +25.4 +17.7 62 +30 +30 душно 1016.5 965.2
18 20.08 В 3 н/о н/о +24.8 +18.3 67 +29 +29 душно 1016.2 964.9 +17.9 +26.2
19 20.08 В 3 н/о н/о +24.0 +18.6 72 +29 +29 душно 1016.3 964.8
20 20.08 ЮВ 4 н/о н/о +23.9 +18.4 71 +28 +28 душно 1016.2 964.7
21 20.08 ЮВ 5 н/о н/о +23.7 +18.2 71 +28 +28 душно 1015.8 964.3
22 20.08 Ю 4 н/о н/о +23.7 +17.9 70 +28 +28 душно 1016.3 964.8
23 20.08 СЗ 14
{17}
н/о н/о +19.1 +17.0 88 +19 +19 1018.5 966.0
00 21.08 СЗ 11
{17}
н/о н/о +18.6 +15.9 84 +18 +18 1019.5 966.9 0.0
01 21.08 СЗ 11
{17}
н/о н/о +17.4 +15.7 90 +16 +16 1020.7 967.8 0.0
02 21.08 СЗ 11
{15}
н/о н/о +16.5 +14.9 90 +15 +15 1022.5 969.3
03 21.08 СЗ 15
{20}
н/о н/о +15.6 +13.5 87 +13 +13 1023.1 969.7 0.0
04 21.08 С 16
{22}
н/о н/о +15.0 +12.2 83 +12 +12 1023.3 969.8
05 21.08 С 12
{20}
н/о н/о +14.8 +12.2 84 +12 +12 1024.8 971.1
06 21.08 С 13
{22}
н/о н/о +14.8 +11.9 83 +12 +12 1026.0 972.3 +14.8 +24.9 0.0
07 21.08 С 11
{18}
н/о н/о +15.5 +12.1 80 +13 +13 1026.1 972.5
08 21.08 С 10
{18}
н/о н/о +15.8 +12.2 79 +14 +14 1026.7 973.1
09 21.08 С 10
{18}
н/о н/о +17.0 +12.4 74 +15 +15 1026.8 973.4
10 21.08 С 10
{15}
н/о н/о +16.3 +12.3 77 +14 +14 1027.0 973.5
11 21.08 С 9
{13}
н/о н/о +16.6 +12.5 77 +15 +15 1027.1 973.7
12 21.08 С 10
{18}
н/о н/о +16.7 +12.3 75 +15 +15 1026.6 973.2
13 21.08 С 9
{13}
н/о н/о +18.1 +13.2 73 +17 +17 1026.5 973.4
14 21.08 С 8 н/о н/о +18.4 +12.5 68 +18 +18 1026.6 973.5
15 21.08 С 7
{13}
н/о н/о +18.4 +12.7 69 +18 +18 1026.4 973.3
16 21.08 С 7 н/о н/о +18.3 +12.1 67 +18 +18 1026.5 973.4
17 21.08 С 6 н/о н/о +17.6 +11.7 68 +17 +17 1026.7 973.4
18 21.08 С 6
{18}
н/о н/о +16.8 +11.6 71 +16 +16 1027.0 973.6 +14.8 +19.4
19 21.08 С 5 н/о н/о +15.7 +12.0 79 +15 +15 1027.3 973.7
20 21.08 С 5 н/о н/о +14.4 +12.0 85 +13 +13 1027.7 973.8
21 21.08 С 5 н/о н/о +14.2 +12.1 87 +12 +12 1027.7 973.8
22 21.08 С 6 н/о н/о +13.7 +12.0 89 +11 +11 1028.1 974.1
23 21.08 С 7 н/о н/о +13.4 +11.7 89 +11 +11 1027.7 973.6
00 22.08 С 8 н/о н/о +12.7 +11.3 91 +10 +10 1027.2 973.0
01 22.08 С 8 н/о н/о +12.6 +11.0 90 +9 +9 1026.7 972.5
02 22.08 С 8 н/о н/о +12.3 +10.9 91 +9 +9 1026.6 972.4
03 22.08 С 9 н/о н/о +11.9 +10.8 93 +8 +8 1026.4 972.1
04 22.08 С 8 н/о н/о +11.9 +10.9 94 +8 +8 1026.2 971.9
05 22.08 С 7 н/о н/о +12.2 +11.1 93 +9 +9 1026.0 971.8
06 22.08 С 6 н/о н/о +12.9 +11.4 91 +10 +10 1026.5 972.4 +11.7 +17.0
07 22.08 С 6 н/о н/о +13.6 +12.0 90 +11 +11 1025.9 972.0
08 22.08 С 6 н/о н/о +14.7 +12.6 87 +13 +13 1025.6 971.9
09 22.08 С 5 н/о н/о +15.6 +13.0 85 +14 +14 1025.4 971.9
10 22.08 С 2 н/о н/о +17.3 +13.4 78 +18 +18 1025.5 972.3
11 22.08 СВ 2 н/о н/о +18.2 +13.7 75 +19 +19 1025.3 972.3
12 22.08 СВ 3 н/о н/о +20.2 +15.0 72 +23 +23 комфорт 1024.7 972.1 0.0
13 22.08 В 2 н/о н/о +20.2 +14.3 69 +23 +23 комфорт 1024.5 971.9
14 22.08 С 2 н/о н/о +21.8 +14.8 64 +25 +25 комфорт 1023.9 971.6
15 22.08 СВ 4 н/о н/о +21.6 +15.0 66 +25 +25 комфорт 1023.7 971.4
16 22.08 СВ 2 н/о н/о +21.5 +14.6 65 +25 +25 комфорт 1023.7 971.3
17 22.08 СВ 3 н/о н/о +20.5 +14.4 68 +23 +23 комфорт 1023.7 971.2
18 22.08 СВ 3 н/о н/о +19.6 +14.2 71 +22 +22 комфорт 1024.1 971.4 +12.8 +22.5 0.0
19 22.08 С 4 н/о н/о +18.7 +14.4 76 +19 +19 1025.0 972.1
20 22.08 С 5 н/о н/о +17.1 +14.5 85 +16 +16 1025.9 972.6
21 22.08 С 5 н/о н/о +16.1 +13.8 86 +15 +15 1025.8 972.4
22 22.08 С 3 н/о н/о +16.1 +13.4 84 +16 +16 1025.7 972.3
23 22.08 С 4 н/о н/о +15.6 +13.0 85 +15 +15 1025.8 972.3
00 23.08 С 5 н/о н/о +15.1 +12.8 86 +14 +14 1026.1 972.4
01 23.08 С 7 н/о н/о +14.4 +12.5 88 +12 +12 1025.9 972.1
02 23.08 С 7 н/о н/о +13.9 +12.3 90 +12 +12 1026.0 972.1
03 23.08 С 7 н/о н/о +13.4 +12.3 93 +11 +11 1026.1 972.1
04 23.08 С 8 н/о н/о +13.2 +12.2 94 +10 +10 1025.9 971.9
05 23.08 С 4 н/о н/о +13.1 +12.1 94 +11 +11 1026.7 972.6
06 23.08 С 4 н/о н/о +14.7 +12.6 87 +13 +13 1026.3 972.6 +13.0 +19.7
07 23.08 С 7 н/о н/о +16.4 +13.3 82 +15 +15 1026.1 972.7
08 23.08 С 2 н/о н/о +18.2 +14.1 77 +19 +19 1026.4 973.3
09 23.08 С 4 н/о н/о +19.7 +13.9 69 +22 +22 комфорт 1025.8 973.0 0.0
10 23.08 С 3 н/о н/о +21.5 +13.9 62 +24 +24 комфорт 1025.6 973.1
11 23.08 СЗ 1 н/о н/о +22.5 +14.2 59 +26 +26 жарко 1025.0 972.7 0.0
12 23.08 С 2 н/о н/о +23.6 +13.9 54 +26 +26 жарко 1024.4 972.3 0.0
13 23.08 СЗ 1 н/о н/о +24.7 +15.5 57 +28 +28 душно 1023.7 971.9
14 23.08 С 1 н/о н/о +25.1 +14.8 53 +28 +28 жарко 1023.1 971.4
15 23.08 СЗ 1 н/о н/о +25.2 +14.1 50 +28 +28 жарко 1022.7 971.0
16 23.08 С 2 н/о н/о +25.3 +14.9 53 +28 +28 жарко 1022.1 970.5
17 23.08 С 2 н/о н/о +24.2 +15.0 56 +27 +27 жарко 1022.2 970.4
18 23.08 СВ 4 н/о н/о +22.6 +14.4 60 +26 +26 жарко 1022.6 970.5 +14.3 +25.7 0.0
19 23.08 В 3 н/о н/о +22.3 +14.4 61 +26 +26 жарко 1023.3 971.1
20 23.08 В 3 н/о н/о +21.9 +14.8 64 +25 +25 комфорт 1023.5 971.2
21 23.08 В 3 н/о н/о +21.7 +14.8 65 +25 +25 комфорт 1023.0 970.7
22 23.08 В 4 н/о н/о +21.3 +15.2 68 +24 +24 комфорт 1022.7 970.4
23 23.08 В 4 н/о н/о +20.8 +15.8 73 +24 +24 комфорт 1022.8 970.4
00 24.08 В 4 н/о н/о +20.5 +15.9 75 +24 +24 комфорт 1022.6 970.1
01 24.08 В 4 н/о н/о +20.0 +16.0 78 +23 +23 комфорт 1022.5 970.0
02 24.08 В 4 н/о н/о +19.0 +15.7 81 +20 +20 1022.6 969.9
03 24.08 В 4 н/о н/о +18.6 +15.8 84 +19 +19 1022.6 969.8
04 24.08 ЮВ 5 н/о н/о +19.0 +15.5 80 +20 +20 1022.5 969.8
05 24.08 В 4 н/о н/о +18.8 +15.6 82 +20 +20 1022.3 969.6
06 24.08 В 4 н/о н/о +19.8 +16.1 79 +22 +22 комфорт 1022.4 969.8 +18.4 +22.7
07 24.08 ЮВ 2 н/о н/о +20.9 +16.9 78 +25 +25 комфорт 1022.2 969.9
08 24.08 ЮВ 3 н/о н/о +22.0 +16.9 73 +26 +26 душно 1022.0 969.9
09 24.08 ЮВ 4 н/о н/о +24.1 +17.7 67 +28 +28 душно 1021.7 969.9
10 24.08 ЮВ 6 н/о н/о +25.1 +17.3 62 +29 +29 душно 1021.2 969.6
11 24.08 Ю 6 н/о н/о +26.1 +17.2 58 +30 +30 душно 1020.6 969.2
12 24.08 ЮВ 5 н/о н/о +26.6 +17.3 57 +31 +31 душно 1020.2 968.9
13 24.08 ЮВ 6 н/о н/о +27.7 +17.2 53 +32 +32 очень
душно
1019.7 968.6
14 24.08 ЮВ 5 н/о н/о +27.1 +16.1 51 +30 +30 душно 1019.4 968.2
15 24.08 ЮВ 6 н/о н/о +27.1 +15.8 50 +30 +30 душно 1019.0 967.8
16 24.08 ЮВ 5 н/о н/о +26.7 +15.6 51 +30 +30 душно 1019.0 967.8
17 24.08 Ю 6 н/о н/о +25.9 +15.6 53 +29 +29 душно 1019.3 967.9
18 24.08 ЮВ 5 н/о н/о +25.1 +14.7 52 +28 +28 жарко 1019.3 967.8 +19.5 +27.9
19 24.08 В 3 н/о н/о +23.8 +16.2 62 +27 +27 жарко 1019.5 967.8
20 24.08 В 5 н/о н/о +22.8 +15.7 64 +27 +27 душно 1020.1 968.2
21 24.08 ЮВ 5 н/о н/о +22.7 +16.1 66 +27 +27 душно 1020.0 968.1
22 24.08 Ю 7 н/о н/о +20.5 +14.1 67 +23 +23 комфорт 1021.2 968.8
23 24.08 ЮВ 6 н/о осадки н/о +18.9 +14.9 78 +20 +20 1020.2 967.6 0.1
00 25.08 ЮВ 6 н/о {осадки} н/о +19.8 +13.9 69 +21 +21 комфорт 1019.5 967.0 0.1
01 25.08 ЮВ 5 н/о н/о +17.8 +15.0 84 +17 +17 1020.2 967.4 0.0
02 25.08 ЮВ 7 н/о в посл. час осадки н/о +17.6 +14.9 84 +17 +17 1021.4 968.5 0.0
03 25.08 ЮВ 7 н/о осадки н/о +16.6 +16.0 96 +15 +15 1021.6 968.5 0.0
04 25.08 ЮВ 6 н/о осадки н/о +16.6 +16.2 97 +15 +15 1021.3 968.2 1
05 25.08 В 6 н/о в посл. час осадки н/о +17.2 +15.7 91 +16 +16 1020.5 967.6 0.3
06 25.08 ЮВ 6 н/о {ливн. осадки} н/о +17.0 +16.1 94 +16 +16 1020.9 967.9 +16.5 +25.3 2
07 25.08 ЮВ 5 н/о н/о +17.2 +16.3 94 +17 +17 1021.4 968.4
08 25.08 ЮВ 4 н/о н/о +17.7 +16.7 94 +17 +17 1021.6 968.7
09 25.08 С 2 н/о н/о +19.1 +17.2 89 +21 +21 комфорт 1021.1 968.5
10 25.08 штиль 0 н/о н/о +20.9 +17.1 79 +24 +24 комфорт 1020.9 968.6
11 25.08 ЮВ 3 н/о н/о +20.2 +17.4 84 +24 +24 комфорт 1021.0 968.6
12 25.08 ЮВ 3 н/о н/о +21.3 +17.7 80 +25 +25 комфорт 1021.0 968.8
13 25.08 ЮВ 4 н/о н/о +21.5 +17.5 78 +26 +26 душно 1020.8 968.6
14 25.08 ЮВ 3 н/о н/о +22.2 +17.3 74 +27 +27 душно 1019.9 967.9
15 25.08 ЮВ 3 н/о н/о +23.3 +17.0 68 +28 +28 душно 1019.3 967.5
16 25.08 ЮВ 5 н/о н/о +22.6 +17.1 71 +27 +27 душно 1019.3 967.4
17 25.08 ЮВ 3 н/о н/о +22.4 +17.5 74 +27 +27 душно 1019.4 967.5

 

Местоположение метеостанции Лейзер Берге (Австрия): широта 48.57 долгота 16.37 высота над уровнем моря 450 м.

В архиве по умолчанию представлена погода в Лейзер Берге за последнюю неделю. Архивные данные за месяц целиком и за предыдущие месяцы, начиная с января 2011 года, Вы можете получить, выбрав интересующий диапазон дат из раскрывающегося списка и нажав кнопку "Ввод!".


*Определитесь, кто Вы:
робот инопланетянин человек

Внимание! Время в таблицах - всемирное. Для получения местного времени необходимо прибавить поправку, которая равна 1 ч.

Смотрите также архив погоды в соседних городах и на ближайших метеорологических станциях:

Погода в Мистельбахе (Австрия) (17 км)
Погода в Пойсдорфе (Австрия) (22 км)
Погода в Штоккерау (Австрия) (25 км)
Погода в Тульн-ан-дер-Донау (Австрия) (33 км)
Погода в Вене (Австрия) (36 км)
Погода в Вене Донауфельд (Австрия) (36 км)
Погода в Реце (Австрия) (38 км)
Погода в Кучарловице (Чехия) (41 км)
Погода в Вене город (Австрия) (41 км)
Погода в Мариябрунн (Австрия) (42 км)

Пояснения к столбцам:

Ветер - указаны скорость ветра в м/с - средняя за 10 мин, порывы в срок и между сроками (в фигурных скобках) и направление, откуда дует ветер: С - северный, СВ - северо-восточный, В - восточный, ЮВ - юго-восточный, Ю - южный, ЮЗ - юго-западный, З - западный, СЗ - северо-западный.
Видимость - горизонтальная дальность видимости в метрах или километрах. При видимости от 1 до 10 км при отсутствии осадков обычно наблюдается дымка, при ухудшении видимости до 1 км и менее - туман. В сухую погоду видимость может ухудшаться дымом, пылью или мглою.
Явления - указаны атмосферные явления, наблюдавшиеся в срок или в последний час перед сроком; фигурными скобками обозначены явления, наблюдавшиеся между сроками (за 1-3 часа до срока); квадратными скобками обозначены град или гололедные отложения с указанием их диаметра в мм.
Облачность - указаны через наклонную черту общая и нижняя облачность в баллах и высота нижней границы облаков в метрах; квадратными скобками обозначены формы облаков: Ci - перистые, Cs - перисто-слоистые, Cc - перисто-кучевые, Ac - высококучевые, As - высокослоистые, Sc - слоисто-кучевые, Ns - слоисто-дождевые, Cu - кучевые, Cb - кучево-дождевые. Подробнее классификацию облаков см. в Атласе облаков (PDF).
T - Температура воздуха - температура, измеренная на высоте 2 м над землей.
Td - Температура точки росы - температура, при понижении до которой содержащийся в воздухе водяной пар достигнет насыщения.
f - Относительная влажность воздуха - влажноcть воздуха, измеренная на высоте 2 м над землей.
Te - Эффективная температура - температура, которую ощущает одетый по сезону человек в тени. Характеристика душности погоды. При расчете учитывается влияние влажности воздуха и скорости ветра на теплоощущения человека.
Tes - Эффективная температура на солнце - температура, которую ощущает человек, с поправкой на солнечный нагрев. Характеристика знойности погоды. Зависит от высоты солнца над горизонтом, облачности и скорости ветра. Ночью, в пасмурную погоду, а также при ветре 12 м/с и более поправка равна нулю.
P - Атмосферное давление - приведенное к уровню моря атмосферное давление.
Po - Атмосферное давление - измеренное на уровне метеостанции атмосферное давление.
Tmin - Минимальная температура - минимум температуры воздуха на высоте 2 м над землей.
Tmax - Максимальная температура - максимум температуры воздуха на высоте 2 м над землей.
R - Количество осадков - Количество выпавших осадков за период времени, мм. При наведении курсора мыши на число - период времени, за который выпало указанное количество осадков.
R24 - Количество осадков - Количество выпавших осадков за 24 часа, мм.
S - Снежный покров - Высота снежного покрова, см. При наведении курсора мыши на число - состояние снежного покрова и степень покрытия местности в баллах.